Change the Weather History Date:

Thursday, November 8, 2012

  Actual Average Record
Temperature  
Mean Temperature 48 °F 43 °F  
Max Temperature 66 °F 56 °F 83 °F (1934)
Min Temperature 29 °F 29 °F 16 °F (1955)
Degree Days  
Heating Degree Days 17 22  
Month to date heating degree days 112 166  
Since 1 July heating degree days 646 706  
Cooling Degree Days 0 0  
Month to date cooling degree days 0 0  
Year to date cooling degree days 1338 941  
Moisture  
Dew Point 28 °F    
Average Humidity 58    
Maximum Humidity 85    
Minimum Humidity 30    
Precipitation  
Precipitation 0.00 in 0.03 in 0.41 in (1970)
Month to date precipitation 0.00 0.24  
Year to date precipitation 9.02 18.73  
Snow  
Snow 0.00 in 0.10 in - ()
Month to date snowfall 0.0 1.0  
Since 1 July snowfall 0.5 3.6  
Since 1 September snowfall 0.5 3.6  
Snow Depth 0.00 in    
Sea Level Pressure  
Sea Level Pressure 29.86 in    
Wind  
Wind Speed 9 mph (NNE)    
Max Wind Speed 25 mph    
Max Gust Speed 30 mph    
Visibility 10 miles    
Events      
T = Trace of Precipitation, MM = Missing Value Source: NWS Daily Summary

Daily Weather History Graph

Daily Weather History Graph

Search for Another Location

Airport or City:

Trip Planner

Search our weather history database for the weather conditions in past years. The results will help you decide how hot, cold, wet, or windy it might be!

Date:

Astronomy

Nov. 08, 2012 Rise Set
Actual Time 6:23 AM MST 4:37 PM MST
Civil Twilight 5:54 AM MST 5:05 PM MST
Nautical Twilight 5:22 AM MST 5:37 PM MST
Astronomical Twilight 4:51 AM MST 6:09 PM MST
Moon 12:22 AM MST (11/8) 1:17 PM MST (11/8)
Length of Visible Light 11h 10m
Length of Day
10h 14m
Waning Crescent, 32% of the Moon is Illuminated
Nov 8
Waning Crescent
Nov 13
New
Nov 20
First Quarter
Nov 28
Full
Dec 6
Last Quarter

Hourly Weather History & Observations

Time (MST) Temp. Windchill Dew Point Humidity Pressure Visibility Wind Dir Wind Speed Gust Speed Precip Events Conditions
12:53 AM 41.0 °F 36.4 °F 32.0 °F 70% 29.81 in 10.0 mi South 6.9 mph - N/A   Clear
1:53 AM 34.0 °F 29.8 °F 28.0 °F 79% 29.83 in 10.0 mi West 4.6 mph - N/A   Clear
2:53 AM 28.9 °F - 23.0 °F 78% 29.82 in 10.0 mi Calm Calm - N/A   Clear
3:53 AM 30.0 °F 24.1 °F 26.1 °F 85% 29.84 in 10.0 mi West 5.8 mph - N/A   Clear
4:53 AM 32.0 °F 26.4 °F 27.0 °F 82% 29.86 in 10.0 mi WNW 5.8 mph - N/A   Clear
5:53 AM 37.0 °F 30.4 °F 28.9 °F 73% 29.85 in 10.0 mi WNW 9.2 mph - N/A   Clear
6:53 AM 39.0 °F 32.3 °F 28.9 °F 67% 29.89 in 10.0 mi WNW 10.4 mph - N/A   Clear
7:53 AM 48.9 °F - 28.9 °F 46% 29.90 in 10.0 mi NW 10.4 mph - N/A   Clear
8:53 AM 55.9 °F - 26.1 °F 32% 29.90 in 10.0 mi North 20.7 mph 28.8 mph N/A   Clear
9:53 AM 57.0 °F - 28.9 °F 34% 29.90 in 10.0 mi North 16.1 mph - N/A   Clear
10:53 AM 59.0 °F - 30.0 °F 33% 29.88 in 10.0 mi North 17.3 mph - N/A   Clear
11:53 AM 63.0 °F - 30.9 °F 30% 29.85 in 10.0 mi North 15.0 mph 23.0 mph N/A   Clear
12:53 PM 64.0 °F - 32.0 °F 30% 29.82 in 10.0 mi North 17.3 mph 21.9 mph N/A   Clear
1:53 PM 64.9 °F - 32.0 °F 29% 29.84 in 10.0 mi North 12.7 mph - N/A   Clear
2:53 PM 62.1 °F - 30.9 °F 31% 29.85 in 10.0 mi NNE 11.5 mph - N/A   Clear
3:53 PM 61.0 °F - 32.0 °F 34% 29.87 in 10.0 mi NE 6.9 mph - N/A   Clear
4:53 PM 48.0 °F - 28.9 °F 48% 29.91 in 10.0 mi ENE 8.1 mph - N/A   Clear
5:53 PM 42.1 °F 38.4 °F 27.0 °F 55% 29.91 in 10.0 mi East 5.8 mph - N/A   Clear
6:53 PM 44.1 °F 40.8 °F 28.9 °F 55% 29.89 in 10.0 mi East 5.8 mph - N/A   Clear
7:53 PM 44.1 °F 42.5 °F 28.9 °F 55% 29.87 in 10.0 mi ESE 3.5 mph - N/A   Clear
8:53 PM 43.0 °F 41.3 °F 28.0 °F 56% 29.84 in 10.0 mi ESE 3.5 mph - N/A   Clear
9:53 PM 36.0 °F 28.5 °F 25.0 °F 64% 29.83 in 10.0 mi SE 10.4 mph - N/A   Clear
10:53 PM 35.1 °F - 25.0 °F 67% 29.82 in 10.0 mi Calm Calm - N/A   Clear
11:53 PM 37.9 °F 32.1 °F 27.0 °F 65% 29.78 in 10.0 mi SSE 8.1 mph - N/A   Clear